Flag for U.S.A. Weather past 2 weeks in Sunrise Manor, Nevada, U.S.A.

Now
80 °F

Clear.


Feels Like: 79 °F
Forecast: 72 / 101 °F
Wind: 7 mph from Northeast

Location: Nellis Air Force Base

Current Time: Sep 1, 2014 at 4:53:24 AM

Latest Report: Sep 1, 2014 at 3:58 AM


Visibility: 10 mi

Pressure: 29.69 "Hg

Humidity: 23%

Dew point: 39 °F

Location of Sunrise ManorLocation

Historic Weather in Sunrise Manor — Graph

°F

Sunrise Manor temperature yesterday

Maximum temperature yesterday: 103 °F (at 4:58 PM)
Minimum temperature yesterday: 76 °F (at 6:58 AM)
Average temperature yesterday: 92 °F

Past Weeks' High & Low Weather Summary

 TemperatureHumidityPressure
High106 °F (Aug 17, 3:58 PM)74% (Aug 19, 7:58 AM)30.02 "Hg (Aug 19, 7:58 AM)
Low71 °F (Aug 22, 5:58 AM)6% (Aug 25, 4:58 PM)29.58 "Hg (Aug 30, 5:58 PM)
Average87 °F25%29.78 "Hg
* Reported Aug 17 3:58 AM — Sep 1 3:58 AM, Sunrise Manor, Weather by CustomWeather, © 2014

Note: Actual official high and low records may vary slightly from our data, if they occured in-between our weather recording intervals... More about our weather records

Advertising

Sunrise Manor weather history for previous 24 hours

 ConditionsComfort  
Time TempWeatherWind HumidityBarometerVisibility
3:58 AM
Sep 1
80 °FClear.7 mph23%29.69 "Hg10 mi
2:58 AM81 °FClear.6 mph19%29.68 "Hg10 mi
1:58 AM81 °FClear.1 mph18%29.67 "Hg10 mi
12:58 AM84 °FClear.8 mph18%29.67 "Hg10 mi
11:58 PM
Aug 31
89 °FClear.3 mph13%29.65 "Hg10 mi
10:58 PM93 °FClear.13 mph12%29.63 "Hg10 mi
9:58 PM93 °FClear.13 mph14%29.64 "Hg10 mi
8:58 PM94 °FClear.6 mph12%29.62 "Hg10 mi
7:58 PM98 °FSunny.13 mph11%29.61 "Hg10 mi
6:58 PM100 °FSunny.7 mph9%29.60 "Hg10 mi
5:58 PM102 °FSunny.6 mph8%29.61 "Hg10 mi
4:58 PM103 °FSunny.2 mph8%29.61 "Hg10 mi
3:58 PM101 °FSunny.3 mph8%29.63 "Hg10 mi
2:58 PM102 °FSunny.6 mph8%29.65 "Hg10 mi
1:58 PM100 °FSunny.2 mph8%29.68 "Hg10 mi
12:58 PM99 °FSunny.1 mph9%29.70 "Hg10 mi
11:58 AM96 °FSunny.6 mph10%29.72 "Hg10 mi
10:58 AM92 °FSunny.No wind12%29.73 "Hg10 mi
9:58 AM90 °FSunny.2 mph13%29.74 "Hg10 mi
8:58 AM85 °FSunny.1 mph18%29.73 "Hg10 mi
7:58 AM79 °FSunny.No wind21%29.72 "Hg10 mi
6:58 AM76 °FClear.7 mph24%29.70 "Hg10 mi
5:58 AM78 °FClear.6 mph25%29.67 "Hg10 mi
4:58 AM85 °FClear.3 mph14%29.64 "Hg10 mi
Weather by CustomWeather, © 2014

See weather overviewHow to use our weather pages